Location: *
(37.5724°S, 58.0067°E)
Time: 11:12:47
(UTC+00:00)

Cosmos 1092 Rocket - Pass Details

Date: 26 September 2020
Orbit: 955 x 995 km, 82.9° (Epoch: 29 October)

Event Time Altitude Azimuth Distance (km) Brightness Sun altitude
Exits shadow 16:41:34 50° 334° (NNW) 1,256 4.4 -29.9°
Maximum altitude 16:43:20 75° 263° (W) 1,035 4.1 -30.2°
Drops below altitude 10° 16:49:46 10° 177° (S) 2,791 6.7 -31.3°
Sets 16:52:20 0° 175° (S) 3,747 7.4 -31.8°
